SCP
0 0 0 0 0 0 0 0 0 0 0 0 0 0 0 0 0 0 0 0 0 0
0 0 0 0 0 0 0 0 0 0 0 0 0 0 0 0 0 0 0 0 0 0
0 0 0 0 0 0 0 0 0 0 0 0 0 0 0 0 0 0 0 0 0 0
0 0 0 0 0 0 0 0 0 0 0 0 0 0 0 0 0 0 0 0 0 0
0 0 0 0 0 0 0 0 0 0 0 0 0 0 0 0 0 0 0 0 0 0
0 0 0 0 0 0 0 0 0 0 0 0 0 0 0 0 0 0 0 0 0 0
0 0 0 0 0 0 0 0 0 0 0 0 0 0 0 0 0 0 0 0 0 0
0 0 0 0 0 0 0 0 0 0 0 0 0 0 0 0 0 0 0 0 0 0
0 0 0 0 0 0 0 0 0 0 0 0 0 0 0 0 0 0 0 0 0 0
0 0 0 0 0 0 0 0 0 0 0 0 0 0 0 0 0 0 0 0 0 0
0 0 0 0 0 0 0 0 0 0 0 0 0 0 0 0 0 0 0 0 0 0
0 0 0 0 0 0 0 0 0 0 0 0 0 0 0 0 0 0 0 0 0 0
0 0 0 0 0 0 0 0 0 0 0 0 0 0 0 0 0 0 0 0 0 0
0 0 0 0 0 0 0 0 0 0 0 0 0 0 0 0 0 0 0 0 0 0
Wind_Speed_500mb
65 58 55 51 44 41 38 32 32 27 18 18 22 22 21 18 15 8 11 17 21 19
58 59 56 46 47 44 35 32 28 22 19 18 17 13 11 8 11 9 12 17 18 20
53 51 46 47 44 37 34 32 26 21 20 17 15 14 12 12 13 15 17 19 25 29
59 47 47 42 38 38 34 27 26 25 23 23 16 10 9 11 13 17 22 27 32 34
56 46 44 44 42 36 36 32 33 27 25 18 13 11 12 15 19 23 30 35 39 39
48 51 50 48 44 39 40 36 29 25 20 14 13 14 17 20 26 33 35 37 37 35
53 53 51 49 47 42 35 30 25 19 13 12 13 16 21 27 32 30 30 29 27 25
67 63 57 50 44 37 30 22 17 14 11 10 15 22 25 24 27 28 25 23 23 26
69 60 53 46 38 30 23 20 14 9 8 15 18 19 21 25 27 27 28 28 24 27
63 55 46 38 33 26 21 14 8 4 8 14 19 21 22 23 25 30 34 32 27 24
54 47 40 34 26 19 13 8 5 8 15 20 19 21 21 22 23 29 31 27 26 29
42 38 32 27 23 19 16 18 16 17 21 22 25 25 22 19 20 20 19 19 22 22
35 34 33 29 27 30 25 22 17 17 25 33 33 30 29 26 25 23 25 25 24 24
38 35 33 34 34 30 27 18 16 19 29 37 39 38 32 28 26 24 25 25 26 25
Wind_Direction_500mb
199 201 209 213 215 206 201 201 192 187 198 234 242 245 234 232 234 266 305 319 320 317
199 200 205 203 196 192 194 189 187 201 217 222 213 214 245 240 265 276 283 289 298 305
195 207 204 199 193 188 183 186 195 203 197 197 206 207 227 247 248 266 277 289 297 301
186 197 192 187 185 176 175 180 182 181 185 199 214 239 273 264 275 286 292 294 299 304
172 179 187 176 171 173 168 167 175 182 196 210 241 268 287 300 303 301 301 304 305 306
168 171 161 163 161 159 163 166 172 191 209 227 257 281 297 303 307 309 310 311 311 312
156 153 153 154 155 159 166 173 185 199 222 242 265 284 298 307 310 313 319 321 313 315
148 151 152 156 160 162 169 174 190 203 220 257 286 298 310 316 321 324 322 316 318 322
148 149 153 156 159 170 175 181 191 217 279 306 317 329 338 341 339 336 325 321 329 331
148 151 155 160 168 173 178 190 216 266 322 340 354 358 358 359 358 352 349 348 349 347
149 150 155 166 170 168 164 148 84 39 35 22 19 22 15 13 14 10 5 0 352 346
145 147 152 151 143 123 108 95 88 69 48 39 37 30 23 17 15 17 19 8 3 19
133 135 133 129 121 111 105 98 87 63 54 32 27 29 32 28 27 33 45 37 23 14
132 135 140 138 128 122 114 102 84 62 40 25 30 32 30 29 36 42 46 45 44 39
Wind_Speed_850mb
65 58 55 51 44 41 38 32 32 27 18 18 22 22 21 18 15 8 11 17 21 19
58 59 56 46 47 44 35 32 28 22 19 18 17 13 11 8 11 9 12 17 18 20
53 51 46 47 44 37 34 32 26 21 20 17 15 14 12 12 13 15 17 19 25 29
59 47 47 42 38 38 34 27 26 25 23 23 16 10 9 11 13 17 22 27 32 34
56 46 44 44 42 36 36 32 33 27 25 18 13 11 12 15 19 23 30 35 39 39
48 51 50 48 44 39 40 36 29 25 20 14 13 14 17 20 26 33 35 37 37 35
53 53 51 49 47 42 35 30 25 19 13 12 13 16 21 27 32 30 30 29 27 25
67 63 57 50 44 37 30 22 17 14 11 10 15 22 25 24 27 28 25 23 23 26
69 60 53 46 38 30 23 20 14 9 8 15 18 19 21 25 27 27 28 28 24 27
63 55 46 38 33 26 21 14 8 4 8 14 19 21 22 23 25 30 34 32 27 24
54 47 40 34 26 19 13 8 5 8 15 20 19 21 21 22 23 29 31 27 26 29
42 38 32 27 23 19 16 18 16 17 21 22 25 25 22 19 20 20 19 19 22 22
35 34 33 29 27 30 25 22 17 17 25 33 33 30 29 26 25 23 25 25 24 24
38 35 33 34 34 30 27 18 16 19 29 37 39 38 32 28 26 24 25 25 26 25
Wind_Direction_850mb
199 201 209 213 215 206 201 201 192 187 198 234 242 245 234 232 234 266 305 319 320 317
199 200 205 203 196 192 194 189 187 201 217 222 213 214 245 240 265 276 283 289 298 305
195 207 204 199 193 188 183 186 195 203 197 197 206 207 227 247 248 266 277 289 297 301
186 197 192 187 185 176 175 180 182 181 185 199 214 239 273 264 275 286 292 294 299 304
172 179 187 176 171 173 168 167 175 182 196 210 241 268 287 300 303 301 301 304 305 306
168 171 161 163 161 159 163 166 172 191 209 227 257 281 297 303 307 309 310 311 311 312
156 153 153 154 155 159 166 173 185 199 222 242 265 284 298 307 310 313 319 321 313 315
148 151 152 156 160 162 169 174 190 203 220 257 286 298 310 316 321 324 322 316 318 322
148 149 153 156 159 170 175 181 191 217 279 306 317 329 338 341 339 336 325 321 329 331
148 151 155 160 168 173 178 190 216 266 322 340 354 358 358 359 358 352 349 348 349 347
149 150 155 166 170 168 164 148 84 39 35 22 19 22 15 13 14 10 5 0 352 346
145 147 152 151 143 123 108 95 88 69 48 39 37 30 23 17 15 17 19 8 3 19
133 135 133 129 121 111 105 98 87 63 54 32 27 29 32 28 27 33 45 37 23 14
132 135 140 138 128 122 114 102 84 62 40 25 30 32 30 29 36 42 46 45 44 39